Year,Month,Day,Hour,Minute,Value (Times are PST for temperature in C)
2008,06,27,00,00,10.60
2008,06,27,00,01,10.60
2008,06,27,00,02,10.60
2008,06,27,00,03,10.60
2008,06,27,00,04,10.50
2008,06,27,00,05,10.50
2008,06,27,00,06,10.40
2008,06,27,00,07,10.40
2008,06,27,00,08,10.40
2008,06,27,00,09,10.40
2008,06,27,00,10,10.40
2008,06,27,00,11,10.30
2008,06,27,00,12,10.30
2008,06,27,00,13,10.30
2008,06,27,00,14,10.30
2008,06,27,00,15,10.30
2008,06,27,00,16,10.30
2008,06,27,00,17,10.30
2008,06,27,00,18,10.20
2008,06,27,00,19,10.20
2008,06,27,00,20,10.20
2008,06,27,00,21,10.20
2008,06,27,00,22,10.20
2008,06,27,00,23,10.20
2008,06,27,00,24,10.10
2008,06,27,00,25,10.10
2008,06,27,00,26,10.10
2008,06,27,00,27,10.10
2008,06,27,00,28,10.10
2008,06,27,00,29,10.00
2008,06,27,00,30,10.00
2008,06,27,00,31,9.90
2008,06,27,00,32,9.90
2008,06,27,00,33,9.90
2008,06,27,00,34,9.90
2008,06,27,00,35,9.80
2008,06,27,00,36,9.80
2008,06,27,00,37,9.80
2008,06,27,00,38,9.80
2008,06,27,00,39,9.80
2008,06,27,00,40,9.80
2008,06,27,00,41,9.80
2008,06,27,00,42,9.80
2008,06,27,00,43,9.80
2008,06,27,00,44,9.70
2008,06,27,00,45,9.70
2008,06,27,00,46,9.70
2008,06,27,00,47,9.70
2008,06,27,00,48,9.70
2008,06,27,00,49,9.70
2008,06,27,00,50,9.70
2008,06,27,00,51,9.70
2008,06,27,00,52,9.60
2008,06,27,00,53,9.60
2008,06,27,00,54,9.60
2008,06,27,00,55,9.60
2008,06,27,00,56,9.60
2008,06,27,00,57,9.60
2008,06,27,00,58,9.60
2008,06,27,00,59,9.60
2008,06,27,01,00,9.60
2008,06,27,01,01,9.50
2008,06,27,01,02,9.50
2008,06,27,01,03,9.50
2008,06,27,01,04,9.50
2008,06,27,01,05,9.50
2008,06,27,01,06,9.40
2008,06,27,01,07,9.40
2008,06,27,01,08,9.40
2008,06,27,01,09,9.40
2008,06,27,01,10,9.40
2008,06,27,01,11,9.40
2008,06,27,01,12,9.30
2008,06,27,01,13,9.30
2008,06,27,01,14,9.30
2008,06,27,01,15,9.30
2008,06,27,01,16,9.30
2008,06,27,01,17,9.30
2008,06,27,01,18,9.30
2008,06,27,01,19,9.30
2008,06,27,01,20,9.20
2008,06,27,01,21,9.20
2008,06,27,01,22,9.20
2008,06,27,01,23,9.20
2008,06,27,01,24,9.20
2008,06,27,01,25,9.20
2008,06,27,01,26,9.20
2008,06,27,01,27,9.20
2008,06,27,01,28,9.20
2008,06,27,01,29,9.20
2008,06,27,01,30,9.10
2008,06,27,01,31,9.10
2008,06,27,01,32,9.10
2008,06,27,01,33,9.10
2008,06,27,01,34,9.10
2008,06,27,01,35,9.10
2008,06,27,01,36,9.10
2008,06,27,01,37,9.10
2008,06,27,01,38,9.10
2008,06,27,01,39,9.10
2008,06,27,01,40,9.10
2008,06,27,01,41,9.00
2008,06,27,01,42,9.00
2008,06,27,01,43,9.00
2008,06,27,01,44,9.00
2008,06,27,01,45,9.00
2008,06,27,01,46,9.00
2008,06,27,01,47,9.10
2008,06,27,01,48,9.00
2008,06,27,01,49,9.10
2008,06,27,01,50,9.10
2008,06,27,01,51,9.10
2008,06,27,01,52,9.10
2008,06,27,01,53,9.10
2008,06,27,01,54,9.10
2008,06,27,01,55,9.10
2008,06,27,01,56,9.10
2008,06,27,01,57,9.10
2008,06,27,01,58,9.10
2008,06,27,01,59,9.10
2008,06,27,02,00,9.20
2008,06,27,02,01,9.10
2008,06,27,02,02,9.20
2008,06,27,02,03,9.20
2008,06,27,02,04,9.20
2008,06,27,02,05,9.20
2008,06,27,02,06,9.20
2008,06,27,02,07,9.20
2008,06,27,02,08,9.20
2008,06,27,02,09,9.20
2008,06,27,02,10,9.20
2008,06,27,02,11,9.20
2008,06,27,02,12,9.10
2008,06,27,02,13,9.10
2008,06,27,02,14,9.10
2008,06,27,02,15,9.10
2008,06,27,02,16,9.10
2008,06,27,02,17,9.10
2008,06,27,02,18,9.10
2008,06,27,02,19,9.10
2008,06,27,02,20,9.10
2008,06,27,02,21,9.10
2008,06,27,02,22,9.10
2008,06,27,02,23,9.10
2008,06,27,02,24,9.10
2008,06,27,02,25,9.00
2008,06,27,02,26,9.00
2008,06,27,02,27,9.00
2008,06,27,02,28,9.00
2008,06,27,02,29,9.00
2008,06,27,02,30,9.00
2008,06,27,02,31,9.00
2008,06,27,02,32,9.00
2008,06,27,02,33,9.00
2008,06,27,02,34,9.00
2008,06,27,02,35,8.90
2008,06,27,02,36,8.90
2008,06,27,02,37,8.90
2008,06,27,02,38,8.90
2008,06,27,02,39,8.90
2008,06,27,02,40,8.90
2008,06,27,02,41,8.90
2008,06,27,02,42,8.90
2008,06,27,02,43,8.90
2008,06,27,02,44,8.90
2008,06,27,02,45,8.90
2008,06,27,02,46,8.90
2008,06,27,02,47,8.90
2008,06,27,02,48,8.90
2008,06,27,02,49,8.90
2008,06,27,02,50,8.90
2008,06,27,02,51,8.80
2008,06,27,02,52,8.80
2008,06,27,02,53,8.80
2008,06,27,02,54,8.80
2008,06,27,02,55,8.80
2008,06,27,02,56,8.80
2008,06,27,02,57,8.80
2008,06,27,02,58,8.80
2008,06,27,02,59,8.80
2008,06,27,03,00,8.80
2008,06,27,03,01,8.80
2008,06,27,03,02,8.80
2008,06,27,03,03,8.80
2008,06,27,03,04,8.80
2008,06,27,03,05,8.80
2008,06,27,03,06,8.70
2008,06,27,03,07,8.70
2008,06,27,03,08,8.70
2008,06,27,03,09,8.70
2008,06,27,03,10,8.70
2008,06,27,03,11,8.70
2008,06,27,03,12,8.70
2008,06,27,03,13,8.70
2008,06,27,03,14,8.70
2008,06,27,03,15,8.70
2008,06,27,03,16,8.70
2008,06,27,03,17,8.70
2008,06,27,03,18,8.70
2008,06,27,03,19,8.70
2008,06,27,03,20,8.70
2008,06,27,03,21,8.70
2008,06,27,03,22,8.70
2008,06,27,03,23,8.70
2008,06,27,03,24,8.70
2008,06,27,03,25,8.70
2008,06,27,03,26,8.60
2008,06,27,03,27,8.60
2008,06,27,03,28,8.60
2008,06,27,03,29,8.60
2008,06,27,03,30,8.60
2008,06,27,03,31,8.60
2008,06,27,03,32,8.60
2008,06,27,03,33,8.60
2008,06,27,03,34,8.60
2008,06,27,03,35,8.60
2008,06,27,03,36,8.60
2008,06,27,03,37,8.60
2008,06,27,03,38,8.60
2008,06,27,03,39,8.60
2008,06,27,03,40,8.50
2008,06,27,03,41,8.50
2008,06,27,03,42,8.50
2008,06,27,03,43,8.50
2008,06,27,03,44,8.50
2008,06,27,03,45,8.50
2008,06,27,03,46,8.50
2008,06,27,03,47,8.50
2008,06,27,03,48,8.50
2008,06,27,03,49,8.50
2008,06,27,03,50,8.50
2008,06,27,03,51,8.50
2008,06,27,03,52,8.50
2008,06,27,03,53,8.50
2008,06,27,03,54,8.50
2008,06,27,03,55,8.50
2008,06,27,03,56,8.60
2008,06,27,03,57,8.50
2008,06,27,03,58,8.50
2008,06,27,03,59,8.50
2008,06,27,04,00,8.50
2008,06,27,04,01,8.50
2008,06,27,04,02,8.50
2008,06,27,04,03,8.50
2008,06,27,04,04,8.40
2008,06,27,04,05,8.40
2008,06,27,04,06,8.40
2008,06,27,04,07,8.40
2008,06,27,04,08,8.40
2008,06,27,04,09,8.40
2008,06,27,04,10,8.40
2008,06,27,04,11,8.40
2008,06,27,04,12,8.40
2008,06,27,04,13,8.30
2008,06,27,04,14,8.30
2008,06,27,04,15,8.30
2008,06,27,04,16,8.30
2008,06,27,04,17,8.30
2008,06,27,04,18,8.30
2008,06,27,04,19,8.30
2008,06,27,04,20,8.30
2008,06,27,04,21,8.30
2008,06,27,04,22,8.30
2008,06,27,04,23,8.30
2008,06,27,04,24,8.30
2008,06,27,04,25,8.30
2008,06,27,04,26,8.30
2008,06,27,04,27,8.30
2008,06,27,04,28,8.30
2008,06,27,04,29,8.30
2008,06,27,04,30,8.30
2008,06,27,04,31,8.30
2008,06,27,04,32,8.30
2008,06,27,04,33,8.30
2008,06,27,04,34,8.30
2008,06,27,04,35,8.30
2008,06,27,04,36,8.20
2008,06,27,04,37,8.20
2008,06,27,04,38,8.20
2008,06,27,04,39,8.20
2008,06,27,04,40,8.20
2008,06,27,04,41,8.20
2008,06,27,04,42,8.20
2008,06,27,04,43,8.20
2008,06,27,04,44,8.20
2008,06,27,04,45,8.30
2008,06,27,04,46,8.30
2008,06,27,04,47,8.30
2008,06,27,04,48,8.30
2008,06,27,04,49,8.30
2008,06,27,04,50,8.30
2008,06,27,04,51,8.30
2008,06,27,04,52,8.30
2008,06,27,04,53,8.30
2008,06,27,04,54,8.30
2008,06,27,04,55,8.30
2008,06,27,04,56,8.30
2008,06,27,04,57,8.30
2008,06,27,04,58,8.30
2008,06,27,04,59,8.30
2008,06,27,05,00,8.30
2008,06,27,05,01,8.30
2008,06,27,05,02,8.30
2008,06,27,05,03,8.20
2008,06,27,05,04,8.20
2008,06,27,05,05,8.20
2008,06,27,05,06,8.20
2008,06,27,05,07,8.20
2008,06,27,05,08,8.20
2008,06,27,05,09,8.20
2008,06,27,05,10,8.20
2008,06,27,05,11,8.20
2008,06,27,05,12,8.20
2008,06,27,05,13,8.20
2008,06,27,05,14,8.10
2008,06,27,05,15,8.10
2008,06,27,05,16,8.10
2008,06,27,05,17,8.10
2008,06,27,05,18,8.10
2008,06,27,05,19,8.10
2008,06,27,05,20,8.10
2008,06,27,05,21,8.10
2008,06,27,05,22,8.10
2008,06,27,05,23,8.10
2008,06,27,05,24,8.10
2008,06,27,05,25,8.10
2008,06,27,05,26,8.00
2008,06,27,05,27,8.00
2008,06,27,05,28,8.00
2008,06,27,05,29,8.00
2008,06,27,05,30,8.00
2008,06,27,05,31,8.00
2008,06,27,05,32,8.00
2008,06,27,05,33,8.00
2008,06,27,05,34,8.00
2008,06,27,05,35,8.00
2008,06,27,05,36,8.00
2008,06,27,05,37,8.00
2008,06,27,05,38,8.00
2008,06,27,05,39,8.00
2008,06,27,05,40,8.10
2008,06,27,05,41,8.10
2008,06,27,05,42,8.10
2008,06,27,05,43,8.10
2008,06,27,05,44,8.10
2008,06,27,05,45,8.10
2008,06,27,05,46,8.10
2008,06,27,05,47,8.10
2008,06,27,05,48,8.10
2008,06,27,05,49,8.10
2008,06,27,05,50,8.10
2008,06,27,05,51,8.10
2008,06,27,05,52,8.10
2008,06,27,05,53,8.10
2008,06,27,05,54,8.10
2008,06,27,05,55,8.10
2008,06,27,05,56,8.10
2008,06,27,05,57,8.10
2008,06,27,05,58,8.10
2008,06,27,05,59,8.10
2008,06,27,06,00,8.10
2008,06,27,06,01,8.10
2008,06,27,06,02,8.10
2008,06,27,06,03,8.10
2008,06,27,06,04,8.20
2008,06,27,06,05,8.20
2008,06,27,06,06,8.20
2008,06,27,06,07,8.20
2008,06,27,06,08,8.20
2008,06,27,06,09,8.20
2008,06,27,06,10,8.20
2008,06,27,06,11,8.20
2008,06,27,06,12,8.20
2008,06,27,06,13,8.20
2008,06,27,06,14,8.20
2008,06,27,06,15,8.20
2008,06,27,06,16,8.20
2008,06,27,06,17,8.20
2008,06,27,06,18,8.20
2008,06,27,06,19,8.20
2008,06,27,06,20,8.20
2008,06,27,06,21,8.30
2008,06,27,06,22,8.30
2008,06,27,06,23,8.30
2008,06,27,06,24,8.30
2008,06,27,06,25,8.30
2008,06,27,06,26,8.30
2008,06,27,06,27,8.30
2008,06,27,06,28,8.40
2008,06,27,06,29,8.40
2008,06,27,06,30,8.40
2008,06,27,06,31,8.40
2008,06,27,06,32,8.40
2008,06,27,06,33,8.50
2008,06,27,06,34,8.50
2008,06,27,06,35,8.60
2008,06,27,06,36,8.60
2008,06,27,06,37,8.60
2008,06,27,06,38,8.60
2008,06,27,06,39,8.70
2008,06,27,06,40,8.70
2008,06,27,06,41,8.70
2008,06,27,06,42,8.80
2008,06,27,06,43,8.80
2008,06,27,06,44,8.80
2008,06,27,06,45,8.90
2008,06,27,06,46,8.90
2008,06,27,06,47,9.00
2008,06,27,06,48,9.10
2008,06,27,06,49,9.20
2008,06,27,06,50,9.20
2008,06,27,06,51,9.30
2008,06,27,06,52,9.40
2008,06,27,06,53,9.50
2008,06,27,06,54,9.60
2008,06,27,06,55,9.60
2008,06,27,06,56,9.70
2008,06,27,06,57,9.80
2008,06,27,06,58,9.80
2008,06,27,06,59,9.90
2008,06,27,07,00,10.00
2008,06,27,07,01,10.10
2008,06,27,07,02,10.10
2008,06,27,07,03,10.20
2008,06,27,07,04,10.20
2008,06,27,07,05,10.30
2008,06,27,07,06,10.30
2008,06,27,07,07,10.40
2008,06,27,07,08,10.50
2008,06,27,07,09,10.50
2008,06,27,07,10,10.60
2008,06,27,07,11,10.70
2008,06,27,07,12,10.80
2008,06,27,07,13,10.90
2008,06,27,07,14,11.00
2008,06,27,07,15,11.00
2008,06,27,07,16,11.10
2008,06,27,07,17,11.20
2008,06,27,07,18,11.30
2008,06,27,07,19,11.50
2008,06,27,07,20,11.50
2008,06,27,07,21,11.60
2008,06,27,07,22,11.70
2008,06,27,07,23,11.80
2008,06,27,07,24,11.90
2008,06,27,07,25,12.00
2008,06,27,07,26,12.10
2008,06,27,07,27,12.20
2008,06,27,07,28,12.30
2008,06,27,07,29,12.30
2008,06,27,07,30,12.40
2008,06,27,07,31,12.50
2008,06,27,07,32,12.60
2008,06,27,07,33,12.60
2008,06,27,07,34,12.70
2008,06,27,07,35,12.80
2008,06,27,07,36,12.90
2008,06,27,07,37,13.00
2008,06,27,07,38,13.00
2008,06,27,07,39,13.20
2008,06,27,07,40,13.30
2008,06,27,07,41,13.30
2008,06,27,07,42,13.40
2008,06,27,07,43,13.50
2008,06,27,07,44,13.60
2008,06,27,07,45,13.70
2008,06,27,07,46,13.80
2008,06,27,07,47,13.90
2008,06,27,07,48,14.00
2008,06,27,07,49,14.00
2008,06,27,07,50,14.10
2008,06,27,07,51,14.20
2008,06,27,07,52,14.30
2008,06,27,07,53,14.40
2008,06,27,07,54,14.50
2008,06,27,07,55,14.60
2008,06,27,07,56,14.70
2008,06,27,07,57,14.70
2008,06,27,07,58,14.80
2008,06,27,07,59,14.80
2008,06,27,08,00,14.90
2008,06,27,08,01,15.00
2008,06,27,08,02,15.00
2008,06,27,08,03,15.00
2008,06,27,08,04,15.00
2008,06,27,08,05,15.00
2008,06,27,08,06,15.00
2008,06,27,08,07,15.00
2008,06,27,08,08,15.10
2008,06,27,08,09,15.10
2008,06,27,08,10,15.20
2008,06,27,08,11,15.20
2008,06,27,08,12,15.30
2008,06,27,08,13,15.30
2008,06,27,08,14,15.40
2008,06,27,08,15,15.50
2008,06,27,08,16,15.60
2008,06,27,08,17,15.70
2008,06,27,08,18,15.70
2008,06,27,08,19,15.80
2008,06,27,08,20,15.90
2008,06,27,08,21,16.00
2008,06,27,08,22,16.10
2008,06,27,08,23,16.20
2008,06,27,08,24,16.20
2008,06,27,08,25,16.30
2008,06,27,08,26,16.30
2008,06,27,08,27,16.30
2008,06,27,08,28,16.40
2008,06,27,08,29,16.40
2008,06,27,08,30,16.40
2008,06,27,08,31,16.50
2008,06,27,08,32,16.60
2008,06,27,08,33,16.60
2008,06,27,08,34,16.60
2008,06,27,08,35,16.50
2008,06,27,08,36,16.50
2008,06,27,08,37,16.50
2008,06,27,08,38,16.40
2008,06,27,08,39,16.50
2008,06,27,08,40,16.50
2008,06,27,08,41,16.50
2008,06,27,08,42,16.60
2008,06,27,08,43,16.60
2008,06,27,08,44,16.60
2008,06,27,08,45,16.60
2008,06,27,08,46,16.60
2008,06,27,08,47,16.60
2008,06,27,08,48,16.60
2008,06,27,08,49,16.60
2008,06,27,08,50,16.60
2008,06,27,08,51,16.60
2008,06,27,08,52,16.60
2008,06,27,08,53,16.40
2008,06,27,08,54,16.40
2008,06,27,08,55,16.30
2008,06,27,08,56,16.40
2008,06,27,08,57,16.40
2008,06,27,08,58,16.40
2008,06,27,08,59,16.50
2008,06,27,09,00,16.60
2008,06,27,09,01,16.60
2008,06,27,09,02,16.60
2008,06,27,09,03,16.70
2008,06,27,09,04,16.80
2008,06,27,09,05,16.90
2008,06,27,09,06,17.00
2008,06,27,09,07,17.10
2008,06,27,09,08,17.20
2008,06,27,09,09,17.20
2008,06,27,09,10,17.30
2008,06,27,09,11,17.30
2008,06,27,09,12,17.30
2008,06,27,09,13,17.30
2008,06,27,09,14,17.30
2008,06,27,09,15,17.30
2008,06,27,09,16,17.30
2008,06,27,09,17,17.40
2008,06,27,09,18,17.40
2008,06,27,09,19,17.40
2008,06,27,09,20,17.50
2008,06,27,09,21,17.60
2008,06,27,09,22,17.60
2008,06,27,09,23,17.60
2008,06,27,09,24,17.70
2008,06,27,09,25,17.70
2008,06,27,09,26,17.80
2008,06,27,09,27,17.90
2008,06,27,09,28,17.90
2008,06,27,09,29,18.00
2008,06,27,09,30,17.90
2008,06,27,09,31,17.80
2008,06,27,09,32,17.80
2008,06,27,09,33,17.70
2008,06,27,09,34,17.70
2008,06,27,09,35,17.70
2008,06,27,09,36,17.70
2008,06,27,09,37,17.70
2008,06,27,09,38,17.70
2008,06,27,09,39,17.80
2008,06,27,09,40,17.80
2008,06,27,09,41,17.80
2008,06,27,09,42,17.80
2008,06,27,09,43,17.90
2008,06,27,09,44,17.90
2008,06,27,09,45,17.90
2008,06,27,09,46,17.90
2008,06,27,09,47,17.90
2008,06,27,09,48,17.80
2008,06,27,09,49,17.80
2008,06,27,09,50,17.90
2008,06,27,09,51,17.90
2008,06,27,09,52,17.90
2008,06,27,09,53,17.90
2008,06,27,09,54,18.00
2008,06,27,09,55,18.00
2008,06,27,09,56,18.00
2008,06,27,09,57,18.00
2008,06,27,09,58,18.00
2008,06,27,09,59,17.90
2008,06,27,10,00,17.80
2008,06,27,10,01,17.70
2008,06,27,10,02,17.70
2008,06,27,10,03,17.80
2008,06,27,10,04,17.80
2008,06,27,10,05,17.80
2008,06,27,10,06,17.80
2008,06,27,10,07,17.80
2008,06,27,10,08,17.80
2008,06,27,10,09,17.70
2008,06,27,10,10,17.70
2008,06,27,10,11,17.80
2008,06,27,10,12,17.80
2008,06,27,10,13,17.80
2008,06,27,10,14,17.90
2008,06,27,10,15,17.90
2008,06,27,10,16,18.00
2008,06,27,10,17,18.10
2008,06,27,10,18,18.10
2008,06,27,10,19,18.20
2008,06,27,10,20,18.20
2008,06,27,10,21,18.20
2008,06,27,10,22,18.20
2008,06,27,10,23,18.20
2008,06,27,10,24,18.20
2008,06,27,10,25,18.20
2008,06,27,10,26,18.30
2008,06,27,10,27,18.30
2008,06,27,10,28,18.40
2008,06,27,10,29,18.50
2008,06,27,10,30,18.50
2008,06,27,10,31,18.60
2008,06,27,10,32,18.70
2008,06,27,10,33,18.70
2008,06,27,10,34,18.70
2008,06,27,10,35,18.70
2008,06,27,10,36,18.70
2008,06,27,10,37,18.60
2008,06,27,10,38,18.50
2008,06,27,10,39,18.40
2008,06,27,10,40,18.40
2008,06,27,10,41,18.40
2008,06,27,10,42,18.40
2008,06,27,10,43,18.40
2008,06,27,10,44,18.40
2008,06,27,10,45,18.40
2008,06,27,10,46,18.40
2008,06,27,10,47,18.40
2008,06,27,10,48,18.30
2008,06,27,10,49,18.30
2008,06,27,10,50,18.30
2008,06,27,10,51,18.30
2008,06,27,10,52,18.30
2008,06,27,10,53,18.30
2008,06,27,10,54,18.40
2008,06,27,10,55,18.40
2008,06,27,10,56,18.40
2008,06,27,10,57,18.40
2008,06,27,10,58,18.40
2008,06,27,10,59,18.40
2008,06,27,11,00,18.40
2008,06,27,11,01,18.40
2008,06,27,11,02,18.50
2008,06,27,11,03,18.50
2008,06,27,11,04,18.50
2008,06,27,11,05,18.50
2008,06,27,11,06,18.50
2008,06,27,11,07,18.50
2008,06,27,11,08,18.50
2008,06,27,11,09,18.50
2008,06,27,11,10,18.60
2008,06,27,11,11,18.60
2008,06,27,11,12,18.60
2008,06,27,11,13,18.70
2008,06,27,11,14,18.70
2008,06,27,11,15,18.70
2008,06,27,11,16,18.80
2008,06,27,11,17,18.80
2008,06,27,11,18,18.80
2008,06,27,11,19,18.80
2008,06,27,11,20,18.80
2008,06,27,11,21,18.80
2008,06,27,11,22,18.80
2008,06,27,11,23,18.80
2008,06,27,11,24,18.80
2008,06,27,11,25,18.80
2008,06,27,11,26,18.80
2008,06,27,11,27,18.80
2008,06,27,11,28,18.80
2008,06,27,11,29,18.80
2008,06,27,11,30,18.80
2008,06,27,11,31,18.80
2008,06,27,11,32,18.80
2008,06,27,11,33,18.80
2008,06,27,11,34,18.80
2008,06,27,11,35,18.80
2008,06,27,11,36,18.90
2008,06,27,11,37,18.90
2008,06,27,11,38,19.00
2008,06,27,11,39,19.10
2008,06,27,11,40,19.10
2008,06,27,11,41,19.20
2008,06,27,11,42,19.30
2008,06,27,11,43,19.30
2008,06,27,11,44,19.30
2008,06,27,11,45,19.30
2008,06,27,11,46,19.30
2008,06,27,11,47,19.30
2008,06,27,11,48,19.40
2008,06,27,11,49,19.30
2008,06,27,11,50,19.30
2008,06,27,11,51,19.30
2008,06,27,11,52,19.30
2008,06,27,11,53,19.30
2008,06,27,11,54,19.40
2008,06,27,11,55,19.40
2008,06,27,11,56,19.40
2008,06,27,11,57,19.50
2008,06,27,11,58,19.50
2008,06,27,11,59,19.50
2008,06,27,12,00,19.50
2008,06,27,12,01,19.50
2008,06,27,12,02,19.40
2008,06,27,12,03,19.40
2008,06,27,12,04,19.50
2008,06,27,12,05,19.60
2008,06,27,12,06,19.70
2008,06,27,12,07,19.80
2008,06,27,12,08,19.80
2008,06,27,12,09,19.80
2008,06,27,12,10,19.80
2008,06,27,12,11,19.80
2008,06,27,12,12,19.80
2008,06,27,12,13,19.80
2008,06,27,12,14,19.80
2008,06,27,12,15,19.80
2008,06,27,12,16,19.80
2008,06,27,12,17,19.90
2008,06,27,12,18,19.80
2008,06,27,12,19,19.80
2008,06,27,12,20,19.90
2008,06,27,12,21,19.90
2008,06,27,12,22,19.90
2008,06,27,12,23,20.00
2008,06,27,12,24,20.00
2008,06,27,12,25,20.10
2008,06,27,12,26,20.20
2008,06,27,12,27,20.30
2008,06,27,12,28,20.30
2008,06,27,12,29,20.40
2008,06,27,12,30,20.40
2008,06,27,12,31,20.40
2008,06,27,12,32,20.40
2008,06,27,12,33,20.50
2008,06,27,12,34,20.50
2008,06,27,12,35,20.50
2008,06,27,12,36,20.50
2008,06,27,12,37,20.50
2008,06,27,12,38,20.50
2008,06,27,12,39,20.60
2008,06,27,12,40,20.60
2008,06,27,12,41,20.60
2008,06,27,12,42,20.70
2008,06,27,12,43,20.60
2008,06,27,12,44,20.60
2008,06,27,12,45,20.50
2008,06,27,12,46,20.40
2008,06,27,12,47,20.40
2008,06,27,12,48,20.40
2008,06,27,12,49,20.40
2008,06,27,12,50,20.40
2008,06,27,12,51,20.40
2008,06,27,12,52,20.50
2008,06,27,12,53,20.60
2008,06,27,12,54,20.60
2008,06,27,12,55,20.70
2008,06,27,12,56,20.80
2008,06,27,12,57,20.80
2008,06,27,12,58,20.80
2008,06,27,12,59,20.80
2008,06,27,13,00,20.80
2008,06,27,13,01,20.80
2008,06,27,13,02,20.80
2008,06,27,13,03,20.80
2008,06,27,13,04,20.80
2008,06,27,13,05,20.80
2008,06,27,13,06,20.80
2008,06,27,13,07,20.80
2008,06,27,13,08,20.80
2008,06,27,13,09,20.90
2008,06,27,13,10,21.00
2008,06,27,13,11,21.10
2008,06,27,13,12,21.10
2008,06,27,13,13,21.20
2008,06,27,13,14,21.20
2008,06,27,13,15,21.20
2008,06,27,13,16,21.30
2008,06,27,13,17,21.40
2008,06,27,13,18,21.40
2008,06,27,13,19,21.40
2008,06,27,13,20,21.40
2008,06,27,13,21,21.40
2008,06,27,13,22,21.40
2008,06,27,13,23,21.40
2008,06,27,13,24,21.40
2008,06,27,13,25,21.30
2008,06,27,13,26,21.30
2008,06,27,13,27,21.30
2008,06,27,13,28,21.20
2008,06,27,13,29,21.20
2008,06,27,13,30,21.30
2008,06,27,13,31,21.40
2008,06,27,13,32,21.40
2008,06,27,13,33,21.30
2008,06,27,13,34,21.30
2008,06,27,13,35,21.20
2008,06,27,13,36,21.10
2008,06,27,13,37,21.00
2008,06,27,13,38,21.00
2008,06,27,13,39,21.10
2008,06,27,13,40,21.10
2008,06,27,13,41,21.10
2008,06,27,13,42,21.10
2008,06,27,13,43,21.10
2008,06,27,13,44,21.20
2008,06,27,13,45,21.20
2008,06,27,13,46,21.20
2008,06,27,13,47,21.30
2008,06,27,13,48,21.30
2008,06,27,13,49,21.40
2008,06,27,13,50,21.40
2008,06,27,13,51,21.40
2008,06,27,13,52,21.40
2008,06,27,13,53,21.40
2008,06,27,13,54,21.40
2008,06,27,13,55,21.40
2008,06,27,13,56,21.30
2008,06,27,13,57,21.20
2008,06,27,13,58,21.00
2008,06,27,13,59,21.00
2008,06,27,14,00,20.90
2008,06,27,14,01,20.90
2008,06,27,14,02,20.90
2008,06,27,14,03,20.90
2008,06,27,14,04,20.90
2008,06,27,14,05,20.90
2008,06,27,14,06,20.90
2008,06,27,14,07,20.90
2008,06,27,14,08,21.00
2008,06,27,14,09,21.10
2008,06,27,14,10,21.20
2008,06,27,14,11,21.30
2008,06,27,14,12,21.50
2008,06,27,14,13,21.60
2008,06,27,14,14,21.60
2008,06,27,14,15,21.60
2008,06,27,14,16,21.60
2008,06,27,14,17,21.50
2008,06,27,14,18,21.50
2008,06,27,14,19,21.40
2008,06,27,14,20,21.30
2008,06,27,14,21,21.30
2008,06,27,14,22,21.30
2008,06,27,14,23,21.40
2008,06,27,14,24,21.40
2008,06,27,14,25,21.50
2008,06,27,14,26,21.50
2008,06,27,14,27,21.50
2008,06,27,14,28,21.50
2008,06,27,14,29,21.50
2008,06,27,14,30,21.50
2008,06,27,14,31,21.40
2008,06,27,14,32,21.40
2008,06,27,14,33,21.40
2008,06,27,14,34,21.40
2008,06,27,14,35,21.50
2008,06,27,14,36,21.50
2008,06,27,14,37,21.60
2008,06,27,14,38,21.70
2008,06,27,14,39,21.70
2008,06,27,14,40,21.80
2008,06,27,14,41,21.80
2008,06,27,14,42,21.80
2008,06,27,14,43,21.80
2008,06,27,14,44,21.80
2008,06,27,14,45,21.60
2008,06,27,14,46,21.50
2008,06,27,14,47,21.40
2008,06,27,14,48,21.30
2008,06,27,14,49,21.30
2008,06,27,14,50,21.30
2008,06,27,14,51,21.40
2008,06,27,14,52,21.40
2008,06,27,14,53,21.40
2008,06,27,14,54,21.40
2008,06,27,14,55,21.50
2008,06,27,14,56,21.60
2008,06,27,14,57,21.60
2008,06,27,14,58,21.70
2008,06,27,14,59,21.70
2008,06,27,15,00,21.80
2008,06,27,15,01,21.90
2008,06,27,15,02,21.90
2008,06,27,15,03,22.10
2008,06,27,15,04,22.20
2008,06,27,15,05,22.30
2008,06,27,15,06,22.40
2008,06,27,15,07,22.50
2008,06,27,15,08,22.60
2008,06,27,15,09,22.60
2008,06,27,15,10,22.60
2008,06,27,15,11,22.60
2008,06,27,15,12,22.60
2008,06,27,15,13,22.60
2008,06,27,15,14,22.60
2008,06,27,15,15,22.50
2008,06,27,15,16,22.50
2008,06,27,15,17,22.50
2008,06,27,15,18,22.50
2008,06,27,15,19,22.50
2008,06,27,15,20,22.50
2008,06,27,15,21,22.50
2008,06,27,15,22,22.40
2008,06,27,15,23,22.30
2008,06,27,15,24,22.30
2008,06,27,15,25,22.30
2008,06,27,15,26,22.20
2008,06,27,15,27,22.20
2008,06,27,15,28,22.10
2008,06,27,15,29,22.10
2008,06,27,15,30,22.10
2008,06,27,15,31,22.00
2008,06,27,15,32,22.00
2008,06,27,15,33,21.90
2008,06,27,15,34,21.90
2008,06,27,15,35,21.80
2008,06,27,15,36,21.90
2008,06,27,15,37,21.90
2008,06,27,15,38,21.90
2008,06,27,15,39,22.00
2008,06,27,15,40,22.00
2008,06,27,15,41,22.10
2008,06,27,15,42,22.10
2008,06,27,15,43,22.10
2008,06,27,15,44,22.10
2008,06,27,15,45,22.00
2008,06,27,15,46,22.00
2008,06,27,15,47,22.10
2008,06,27,15,48,22.10
2008,06,27,15,49,22.10
2008,06,27,15,50,22.10
2008,06,27,15,51,22.10
2008,06,27,15,52,22.00
2008,06,27,15,53,22.00
2008,06,27,15,54,22.00
2008,06,27,15,55,21.90
2008,06,27,15,56,21.90
2008,06,27,15,57,22.00
2008,06,27,15,58,22.00
2008,06,27,15,59,22.00
2008,06,27,16,00,22.00
2008,06,27,16,01,22.10
2008,06,27,16,02,22.10
2008,06,27,16,03,22.10
2008,06,27,16,04,22.10
2008,06,27,16,05,22.00
2008,06,27,16,06,21.80
2008,06,27,16,07,21.80
2008,06,27,16,08,21.80
2008,06,27,16,09,21.70
2008,06,27,16,10,21.70
2008,06,27,16,11,21.70
2008,06,27,16,12,21.60
2008,06,27,16,13,21.60
2008,06,27,16,14,21.60
2008,06,27,16,15,21.60
2008,06,27,16,16,21.60
2008,06,27,16,17,21.60
2008,06,27,16,18,21.60
2008,06,27,16,19,21.60
2008,06,27,16,20,21.60
2008,06,27,16,21,21.60
2008,06,27,16,22,21.70
2008,06,27,16,23,21.70
2008,06,27,16,24,21.70
2008,06,27,16,25,21.70
2008,06,27,16,26,21.70
2008,06,27,16,27,21.70
2008,06,27,16,28,21.70
2008,06,27,16,29,21.60
2008,06,27,16,30,21.60
2008,06,27,16,31,21.60
2008,06,27,16,32,21.60
2008,06,27,16,33,21.60
2008,06,27,16,34,21.60
2008,06,27,16,35,21.60
2008,06,27,16,36,21.60
2008,06,27,16,37,21.70
2008,06,27,16,38,21.70
2008,06,27,16,39,21.70
2008,06,27,16,40,21.80
2008,06,27,16,41,21.80
2008,06,27,16,42,21.80
2008,06,27,16,43,21.80
2008,06,27,16,44,21.80
2008,06,27,16,45,21.80
2008,06,27,16,46,21.80
2008,06,27,16,47,21.80
2008,06,27,16,48,21.80
2008,06,27,16,49,21.80
2008,06,27,16,50,21.80
2008,06,27,16,51,21.80
2008,06,27,16,52,21.80
2008,06,27,16,53,21.80
2008,06,27,16,54,21.80
2008,06,27,16,55,21.80
2008,06,27,16,56,21.80
2008,06,27,16,57,21.90
2008,06,27,16,58,21.90
2008,06,27,16,59,21.90
2008,06,27,17,00,21.90
2008,06,27,17,01,21.90
2008,06,27,17,02,21.90
2008,06,27,17,03,21.90
2008,06,27,17,04,21.90
2008,06,27,17,05,21.90
2008,06,27,17,06,21.90
2008,06,27,17,07,21.90
2008,06,27,17,08,21.90
2008,06,27,17,09,21.90
2008,06,27,17,10,21.90
2008,06,27,17,11,21.80
2008,06,27,17,12,21.80
2008,06,27,17,13,21.80
2008,06,27,17,14,21.80
2008,06,27,17,15,21.80
2008,06,27,17,16,21.80
2008,06,27,17,17,21.80
2008,06,27,17,18,21.80
2008,06,27,17,19,21.80
2008,06,27,17,20,21.80
2008,06,27,17,21,21.80
2008,06,27,17,22,21.80
2008,06,27,17,23,21.80
2008,06,27,17,24,21.80
2008,06,27,17,25,21.80
2008,06,27,17,26,21.80
2008,06,27,17,27,21.80
2008,06,27,17,28,21.80
2008,06,27,17,29,21.90
2008,06,27,17,30,21.90
2008,06,27,17,31,21.90
2008,06,27,17,32,21.90
2008,06,27,17,33,21.90
2008,06,27,17,34,21.90
2008,06,27,17,35,21.90
2008,06,27,17,36,21.90